Regional Weather Roundup
Issued by NWS Goodland, KS

Home | Current Version | Previous Version | Graphics & Text | Print | Product List | Glossary On
Versions: 1 2 3 4 5 6 7 8 9 10 11 12 13 14 15 16 17 18 19 20 21 22 23 24 25 26 27 28 29 30 31 32 33 34 35 36 37 38 39 40 41 42 43 44 45 46 47 48 49 50
000
ASUS43 KGLD 030908
RWRGLD

GOODLAND FORECAST AREA HOURLY WEATHER ROUNDUP
NATIONAL WEATHER SERVICE GOODLAND KS
300 AM MDT FRI JUL 03 2015

...OFFICIAL OBSERVATIONS...

CITY           SKY/WX    TMP DP  RH WIND       PRES   REMARKS
GOODLAND KS    CLEAR     62  57  83 CALM      30.09S
HILL CITY KS   CLEAR     62  59  90 N6        30.01S
IMPERIAL NEB   PTCLDY    62  58  86 W3        30.07S
MCCOOK NEB     PTCLDY    61  58  90 NW3       30.04R
AKRON CO       LGT RAIN  61  60  97 SW13      30.18F
BURLINGTON CO  PTCLDY    62  59  90 S8        30.13S
LIMON CO       CLEAR     55  54  96 CALM      30.19F
$$

...UNOFFICIAL OBSERVATIONS...

CITY           SKY/WX    TMP DP  RH WIND       PRES   REMARKS
COLBY KS       CLEAR     61  57  88 SW5       30.08R
GOVE KS          N/A     61  32  33 MISG        N/A
NORTON KS      CLEAR     61  55  82 CALM      30.02  FOG
SHARON SPRINGS   N/A     67  59  75 CALM        N/A
YUMA CO          N/A     64  60  87 W12         N/A
$$


USA.gov is the U.S. government's official web portal to all federal, state and local government web resources and services.